{"data":{"norad_id":37818,"epoch":"2026-05-24T08:23:24.785088Z","epoch_age_seconds":127896,"freshness":"FRESH","line1":"1 37818U 11052A   26144.34959242  .00001775  00000+0  69326-3 0  9999","line2":"2 37818  62.8259 136.1166 4624654 283.0324  30.7832  6.15444229323321","mean_motion":6.15444229,"eccentricity":0.4624654,"inclination_deg":62.8259,"raan_deg":136.1166,"arg_perigee_deg":283.0324,"mean_anomaly_deg":30.7832,"bstar":0.00069326,"rev_number":32332,"period_min":233.97733411844,"perigee_km":382.93866607548,"apogee_km":12016.658848337,"semimajor_km":12577.935757206,"source":"CELESTRAK","updated_at":"2026-05-25T13:37:55.266882Z"}}